User: anonymous   Login
Location: Cimarron National Grasslands
(37.1250°N, 101.7500°W)
Time: 08:19:33
(UTC-06:00)
Language:

Ariane Rocket - Orbit

View from above orbital plane
View from above orbital plane
View from above satellite
View from above satellite

Ground track
Ground track

The orbit data is extracted from the following two-line orbital elements,

1 23561U 95021B   16342.20369262  .00000056  00000-0  34026-4 0  9990
2 23561  98.7842 333.0668 0007952 104.7675 336.5745 14.37783303133660
Epoch (UTC): 07 December 2016 04:53:19
Eccentricity: 0.0007952
inclination: 98.7842°
perigee height: 760 km
apogee height: 771 km
right ascension of ascending node: 333.0668°
argument of perigee: 104.7675°
revolutions per day: 14.37783303
mean anomaly at epoch: 336.5745°
orbit number at epoch: 13366

The dashed part of the orbit path shows where the satellite is in the earth's shadow,  

DLR